| time (UTC) | temp F | wind direction | speed MPH | gust MPH | rain 1hr in | rain 24hr in | rain mn in | humidity % | barometer mb |
| 20260509203517 | 57 | 0.0 | 0.0 | 0.00 | 0.00 | 0.00 | 86 | 993.9 | |
| 20260509202518 | 58 | 0.0 | 0.0 | 0.00 | 0.00 | 0.00 | 85 | 993.9 | |
| 20260509201519 | 59 | 0.0 | 0.0 | 0.00 | 0.00 | 0.00 | 85 | 993.9 | |
| 20260509200515 | 59 | 0.0 | 0.0 | 0.00 | 0.00 | 0.00 | 84 | 993.9 | |
| 20260509195536 | 60 | 0.0 | 0.0 | 0.00 | 0.00 | 0.00 | 83 | 993.8 | |
| 20260509194517 | 61 | 0.0 | 0.0 | 0.00 | 0.00 | 0.00 | 82 | 993.8 | |
| 20260509193519 | 62 | 0.0 | 0.0 | 0.00 | 0.00 | 0.00 | 79 | 993.7 | |
| 20260509192515 | 63 | 0.0 | 0.0 | 0.00 | 0.00 | 0.00 | 78 | 993.6 | |
| 20260509191516 | 64 | 0.0 | 0.0 | 0.00 | 0.00 | 0.00 | 75 | 993.6 | |
| 20260509190517 | 65 | 0.0 | 0.0 | 0.00 | 0.00 | 0.00 | 73 | 993.5 | |
| 20260509185518 | 67 | 0.0 | 0.0 | 0.00 | 0.00 | 0.00 | 71 | 993.4 | |
| 20260509184515 | 68 | 0.0 | 0.0 | 0.00 | 0.00 | 0.00 | 67 | 993.3 | |
| 20260509183536 | 69 | 0.0 | 0.0 | 0.00 | 0.00 | 0.00 | 65 | 993.3 | |
| 20260509182517 | 70 | 28 | 2.0 | 5.0 | 0.00 | 0.00 | 0.00 | 61 | 993.2 |
| 20260509181518 | 71 | 31 | 3.0 | 5.0 | 0.00 | 0.00 | 0.00 | 59 | 993.1 |
| 20260509180514 | 71 | 25 | 3.0 | 6.0 | 0.00 | 0.00 | 0.00 | 58 | 993.0 |
| 20260509175516 | 71 | 40 | 4.0 | 8.0 | 0.00 | 0.00 | 0.00 | 57 | 993.1 |
| 20260509174517 | 72 | 33 | 3.0 | 7.0 | 0.00 | 0.00 | 0.00 | 56 | 993.1 |
| 20260509173518 | 72 | 42 | 3.0 | 6.0 | 0.00 | 0.00 | 0.00 | 56 | 993.1 |
| 20260509172529 | 73 | 39 | 6.0 | 12.0 | 0.00 | 0.00 | 0.00 | 55 | 993.2 |
| 20260509171516 | 73 | 36 | 4.0 | 8.0 | 0.00 | 0.00 | 0.00 | 53 | 993.3 |
| 20260509170517 | 73 | 123 | 1.0 | 5.0 | 0.00 | 0.00 | 0.00 | 53 | 993.3 |
| 20260509165518 | 73 | 26 | 4.0 | 7.0 | 0.00 | 0.00 | 0.00 | 53 | 993.4 |
| 20260509164519 | 73 | 26 | 3.0 | 9.0 | 0.00 | 0.00 | 0.00 | 53 | 993.5 |
| 20260509163520 | 73 | 40 | 5.0 | 11.0 | 0.00 | 0.00 | 0.00 | 53 | 993.5 |
| 20260509162516 | 74 | 46 | 4.0 | 10.0 | 0.00 | 0.00 | 0.00 | 53 | 993.5 |
| 20260509161518 | 73 | 25 | 3.0 | 5.0 | 0.00 | 0.00 | 0.00 | 55 | 993.5 |
| 20260509160519 | 73 | 50 | 4.0 | 8.0 | 0.00 | 0.00 | 0.00 | 55 | 993.6 |
| 20260509155520 | 73 | 46 | 3.0 | 7.0 | 0.00 | 0.00 | 0.00 | 54 | 993.7 |
| 20260509154516 | 74 | 106 | 1.0 | 5.0 | 0.00 | 0.00 | 0.00 | 51 | 993.7 |
| 20260509153538 | 74 | 266 | 1.0 | 5.0 | 0.00 | 0.00 | 0.00 | 52 | 993.8 |
| 20260509152519 | 75 | 120 | 2.0 | 9.0 | 0.00 | 0.00 | 0.00 | 50 | 994.0 |
| 20260509151520 | 75 | 99 | 3.0 | 6.0 | 0.00 | 0.00 | 0.00 | 51 | 994.0 |
| 20260509150516 | 76 | 187 | 3.0 | 8.0 | 0.00 | 0.00 | 0.00 | 51 | 994.2 |
| 20260509145537 | 75 | 103 | 3.0 | 7.0 | 0.00 | 0.00 | 0.00 | 52 | 994.3 |
| 20260509144518 | 74 | 158 | 4.0 | 10.0 | 0.00 | 0.00 | 0.00 | 54 | 994.4 |
| 20260509143520 | 74 | 53 | 5.0 | 11.0 | 0.00 | 0.00 | 0.00 | 53 | 994.2 |
| 20260509142516 | 73 | 47 | 4.0 | 10.0 | 0.00 | 0.00 | 0.00 | 55 | 994.3 |
| 20260509141517 | 75 | 92 | 4.0 | 10.0 | 0.00 | 0.00 | 0.00 | 53 | 994.3 |
| 20260509140518 | 74 | 176 | 3.0 | 6.0 | 0.00 | 0.00 | 0.00 | 50 | 994.2 |
| 20260509135519 | 74 | 60 | 3.0 | 12.0 | 0.00 | 0.00 | 0.00 | 50 | 994.2 |
| 20260509134515 | 74 | 199 | 2.0 | 5.0 | 0.00 | 0.00 | 0.00 | 51 | 994.2 |
| 20260509133517 | 74 | 161 | 4.0 | 10.0 | 0.00 | 0.00 | 0.00 | 51 | 994.3 |
| 20260509132538 | 74 | 114 | 4.0 | 9.0 | 0.00 | 0.00 | 0.00 | 53 | 994.5 |
| 20260509131519 | 73 | 33 | 4.0 | 10.0 | 0.00 | 0.00 | 0.00 | 54 | 994.5 |
| 20260509130520 | 73 | 35 | 5.0 | 10.0 | 0.00 | 0.00 | 0.00 | 55 | 994.5 |
| 20260509125516 | 73 | 37 | 3.0 | 10.0 | 0.00 | 0.00 | 0.00 | 54 | 994.5 |
| 20260509124518 | 73 | 88 | 3.0 | 8.0 | 0.00 | 0.00 | 0.00 | 54 | 994.6 |
| 20260509123519 | 74 | 153 | 3.0 | 9.0 | 0.00 | 0.00 | 0.00 | 54 | 994.7 |
| 20260509122540 | 73 | 119 | 2.0 | 5.0 | 0.00 | 0.00 | 0.00 | 56 | 994.8 |
| 20260509121516 | 72 | 37 | 5.0 | 13.0 | 0.00 | 0.00 | 0.00 | 57 | 994.9 |
| 20260509120517 | 72 | 62 | 2.0 | 7.0 | 0.00 | 0.00 | 0.00 | 57 | 995.1 |
| 20260509115518 | 71 | 29 | 5.0 | 9.0 | 0.00 | 0.00 | 0.00 | 59 | 995.1 |
| 20260509114539 | 71 | 92 | 2.0 | 5.0 | 0.00 | 0.00 | 0.00 | 60 | 995.2 |
| 20260509113515 | 71 | 92 | 3.0 | 8.0 | 0.00 | 0.00 | 0.00 | 61 | 995.4 |
| 20260509112517 | 70 | 106 | 3.0 | 8.0 | 0.00 | 0.00 | 0.00 | 60 | 995.5 |
| 20260509111518 | 70 | 180 | 3.0 | 8.0 | 0.00 | 0.00 | 0.00 | 61 | 995.6 |
| 20260509110519 | 70 | 144 | 2.0 | 6.0 | 0.00 | 0.00 | 0.00 | 62 | 995.7 |
| 20260509105515 | 70 | 180 | 3.0 | 10.0 | 0.00 | 0.00 | 0.00 | 61 | 995.7 |
| 20260509104516 | 70 | 108 | 3.0 | 7.0 | 0.00 | 0.00 | 0.00 | 63 | 995.8 |
| 20260509103537 | 69 | 114 | 1.0 | 5.0 | 0.00 | 0.00 | 0.00 | 66 | 996.0 |
| 20260509102519 | 68 | 80 | 3.0 | 7.0 | 0.00 | 0.00 | 0.00 | 66 | 996.0 |
| 20260509101540 | 68 | 58 | 2.0 | 5.0 | 0.00 | 0.00 | 0.00 | 67 | 996.0 |
| 20260509100521 | 66 | 26 | 4.0 | 10.0 | 0.00 | 0.00 | 0.00 | 67 | 996.1 |
| 20260509095517 | 66 | 37 | 5.0 | 9.0 | 0.00 | 0.00 | 0.00 | 69 | 996.0 |
| 20260509094518 | 65 | 42 | 3.0 | 10.0 | 0.00 | 0.00 | 0.00 | 69 | 996.1 |
| 20260509093539 | 65 | 35 | 4.0 | 8.0 | 0.00 | 0.00 | 0.00 | 69 | 996.1 |
| 20260509092520 | 65 | 56 | 4.0 | 9.0 | 0.00 | 0.00 | 0.00 | 70 | 996.2 |
| 20260509091516 | 64 | 43 | 2.0 | 6.0 | 0.00 | 0.00 | 0.00 | 71 | 996.2 |
| 20260509090517 | 63 | 40 | 4.0 | 8.0 | 0.00 | 0.00 | 0.00 | 71 | 996.2 |
| 20260509085518 | 63 | 56 | 3.0 | 8.0 | 0.00 | 0.00 | 0.00 | 73 | 996.1 |
| 20260509084519 | 62 | 41 | 4.0 | 6.0 | 0.00 | 0.00 | 0.00 | 74 | 996.1 |
| 20260509083520 | 62 | 41 | 3.0 | 8.0 | 0.00 | 0.00 | 0.00 | 75 | 996.3 |
| 20260509082516 | 61 | 23 | 3.0 | 6.0 | 0.00 | 0.00 | 0.00 | 76 | 996.4 |
| 20260509081517 | 60 | 28 | 4.0 | 7.0 | 0.00 | 0.00 | 0.00 | 76 | 996.4 |
| 20260509080518 | 60 | 37 | 4.0 | 6.0 | 0.00 | 0.00 | 0.00 | 77 | 996.4 |
| 20260509075520 | 59 | 31 | 3.0 | 6.0 | 0.00 | 0.00 | 0.00 | 79 | 996.4 |
| 20260509074520 | 59 | 34 | 5.0 | 9.0 | 0.00 | 0.00 | 0.00 | 78 | 996.4 |
| 20260509073557 | 59 | 30 | 4.0 | 9.0 | 0.00 | 0.00 | 0.00 | 79 | 996.5 |
| 20260509072518 | 58 | 32 | 3.0 | 7.0 | 0.00 | 0.00 | 0.00 | 81 | 996.5 |
| 20260509071539 | 57 | 47 | 3.0 | 7.0 | 0.00 | 0.00 | 0.00 | 83 | 996.5 |
| 20260509070520 | 56 | 33 | 5.0 | 8.0 | 0.00 | 0.00 | 0.00 | 84 | 996.5 |
| 20260509065515 | 56 | 45 | 3.0 | 7.0 | 0.00 | 0.00 | 0.00 | 86 | 996.5 |
| 20260509064537 | 55 | 50 | 2.0 | 5.0 | 0.00 | 0.00 | 0.00 | 88 | 996.5 |
| 20260509063518 | 54 | 43 | 1.0 | 3.0 | 0.00 | 0.00 | 0.00 | 93 | 996.5 |
| 20260509062519 | 53 | 0.0 | 0.0 | 0.00 | 0.00 | 0.00 | 97 | 996.5 | |
| 20260509061515 | 51 | 0.0 | 0.0 | 0.00 | 0.00 | 0.00 | 97 | 996.5 | |
| 20260509060516 | 51 | 4 | 0.0 | 1.0 | 0.00 | 0.00 | 0.00 | 97 | 996.6 |
| 20260509055538 | 49 | 0.0 | 0.0 | 0.00 | 0.00 | 0.00 | 98 | 996.5 | |
| 20260509054519 | 48 | 0.0 | 0.0 | 0.00 | 0.00 | 0.00 | 97 | 996.3 | |
| 20260509053515 | 48 | 0.0 | 0.0 | 0.00 | 0.00 | 0.00 | 98 | 996.3 | |
| 20260509052517 | 47 | 0.0 | 0.0 | 0.00 | 0.00 | 0.00 | 98 | 996.3 | |
| 20260509051518 | 45 | 0.0 | 0.0 | 0.00 | 0.00 | 0.00 | 98 | 996.2 | |
| 20260509050519 | 43 | 0.0 | 0.0 | 0.00 | 0.00 | 0.00 | 97 | 996.2 | |
| 20260509045515 | 43 | 4 | 0.0 | 1.0 | 0.00 | 0.00 | 0.00 | 97 | 996.2 |
| 20260509044536 | 43 | 0.0 | 0.0 | 0.00 | 0.00 | 0.00 | 97 | 996.2 | |
| 20260509043518 | 43 | 0.0 | 0.0 | 0.00 | 0.00 | 0.00 | 97 | 996.2 | |
| 20260509042519 | 43 | 0.0 | 0.0 | 0.00 | 0.00 | 0.00 | 97 | 996.3 | |
| 20260509041535 | 42 | 0.0 | 0.0 | 0.00 | 0.00 | 0.00 | 97 | 996.2 | |
| 20260509040517 | 42 | 0.0 | 0.0 | 0.00 | 0.00 | 0.00 | 97 | 996.1 | |
| 20260509035518 | 42 | 0.0 | 0.0 | 0.00 | 0.00 | 0.00 | 97 | 996.3 | |
| 20260509034539 | 42 | 0.0 | 0.0 | 0.00 | 0.00 | 0.00 | 97 | 996.3 | |
| 20260509033520 | 42 | 0.0 | 0.0 | 0.00 | 0.00 | 0.00 | 97 | 996.3 | |
| 20260509032516 | 42 | 0.0 | 0.0 | 0.00 | 0.00 | 0.00 | 97 | 996.3 | |
| 20260509031518 | 42 | 0.0 | 0.0 | 0.00 | 0.00 | 0.00 | 97 | 996.4 | |
| 20260509030519 | 42 | 0.0 | 0.0 | 0.00 | 0.00 | 0.00 | 96 | 996.5 | |
| 20260509025520 | 42 | 0.0 | 0.0 | 0.00 | 0.00 | 0.00 | 96 | 996.6 | |
| 20260509024516 | 43 | 0.0 | 0.0 | 0.00 | 0.00 | 0.00 | 96 | 996.7 | |
| 20260509023537 | 43 | 0.0 | 0.0 | 0.00 | 0.00 | 0.00 | 96 | 996.7 | |
| 20260509022518 | 43 | 0.0 | 0.0 | 0.00 | 0.00 | 0.00 | 96 | 996.7 | |
| 20260509021520 | 43 | 0.0 | 0.0 | 0.00 | 0.00 | 0.00 | 96 | 996.7 | |
| 20260509020516 | 43 | 0.0 | 0.0 | 0.00 | 0.00 | 0.00 | 96 | 996.7 | |
| 20260509015517 | 43 | 0.0 | 0.0 | 0.00 | 0.00 | 0.00 | 96 | 996.7 | |
| 20260509014518 | 43 | 0.0 | 0.0 | 0.00 | 0.00 | 0.00 | 96 | 996.7 | |
| 20260509013520 | 43 | 0.0 | 0.0 | 0.00 | 0.00 | 0.00 | 96 | 996.8 | |
| 20260509012516 | 44 | 0.0 | 0.0 | 0.00 | 0.00 | 0.00 | 96 | 996.9 | |
| 20260509011537 | 44 | 0.0 | 0.0 | 0.00 | 0.00 | 0.00 | 96 | 996.9 | |
| 20260509010538 | 44 | 0.0 | 0.0 | 0.00 | 0.00 | 0.00 | 95 | 997.0 | |
| 20260509005520 | 44 | 0.0 | 0.0 | 0.00 | 0.00 | 0.00 | 95 | 997.1 | |
| 20260509004521 | 44 | 0.0 | 0.0 | 0.00 | 0.00 | 0.00 | 95 | 997.2 | |
| 20260509003517 | 45 | 0.0 | 0.0 | 0.00 | 0.00 | 0.00 | 95 | 997.2 | |
| 20260509002518 | 45 | 0.0 | 0.0 | 0.00 | 0.00 | 0.00 | 95 | 997.2 | |
| 20260509001519 | 45 | 0.0 | 0.0 | 0.00 | 0.00 | 0.00 | 95 | 997.3 | |
| 20260509000521 | 45 | 0.0 | 0.0 | 0.00 | 0.00 | 0.00 | 95 | 997.5 | |
| 20260508235557 | 45 | 0.0 | 0.0 | 0.00 | 0.00 | 0.00 | 95 | 997.6 | |
| 20260508234538 | 46 | 0.0 | 0.0 | 0.00 | 0.00 | 0.00 | 95 | 997.6 | |
| 20260508233519 | 46 | 0.0 | 0.0 | 0.00 | 0.00 | 0.00 | 95 | 997.7 | |
| 20260508232521 | 46 | 0.0 | 0.0 | 0.00 | 0.00 | 0.00 | 94 | 997.7 | |
| 20260508231537 | 46 | 0.0 | 0.0 | 0.00 | 0.00 | 0.00 | 94 | 997.6 | |
| 20260508230518 | 46 | 0.0 | 0.0 | 0.00 | 0.00 | 0.00 | 94 | 997.7 | |
| 20260508225519 | 47 | 0.0 | 0.0 | 0.00 | 0.00 | 0.00 | 94 | 997.7 | |
| 20260508224520 | 47 | 0.0 | 0.0 | 0.00 | 0.00 | 0.00 | 93 | 997.7 | |
| 20260508223516 | 47 | 0.0 | 0.0 | 0.00 | 0.00 | 0.00 | 93 | 997.7 | |
| 20260508222518 | 47 | 0.0 | 0.0 | 0.00 | 0.00 | 0.00 | 93 | 997.8 | |
| 20260508221519 | 47 | 0.0 | 0.0 | 0.00 | 0.00 | 0.00 | 92 | 997.8 | |
| 20260508220520 | 48 | 0.0 | 0.0 | 0.00 | 0.00 | 0.00 | 92 | 997.7 | |
| 20260508215516 | 48 | 0.0 | 0.0 | 0.00 | 0.00 | 0.00 | 92 | 997.8 | |
| 20260508214538 | 48 | 0.0 | 0.0 | 0.00 | 0.00 | 0.00 | 91 | 997.8 | |
| 20260508213519 | 49 | 0.0 | 0.0 | 0.00 | 0.00 | 0.00 | 91 | 997.8 | |
| 20260508212540 | 49 | 0.0 | 0.0 | 0.00 | 0.00 | 0.00 | 90 | 997.8 | |
| 20260508211517 | 49 | 0.0 | 0.0 | 0.00 | 0.00 | 0.00 | 90 | 997.9 | |
| 20260508210517 | 50 | 0.0 | 0.0 | 0.00 | 0.00 | 0.00 | 89 | 997.9 | |
| 20260508205519 | 50 | 0.0 | 0.0 | 0.00 | 0.00 | 0.00 | 88 | 997.9 | |
| 20260508204520 | 50 | 0.0 | 0.0 | 0.00 | 0.00 | 0.00 | 87 | 997.8 |